Dewpoint
28 22 19 22 25 27 26 31 27 44 47 53 54 53 57 59 59 59 62 65 64 64 65 65 66 65 67 68 66 68 67 69
27 26 22 20 26 24 27 26 26 43 44 45 53 51 53 56 56 58 60 61 63 65 67 67 67 68 67 69 68 69 68 68
29 25 21 23 30 32 29 29 29 38 42 51 52 51 51 53 54 57 58 60 61 63 67 68 68 69 69 68 70 68 69 69
28 26 29 23 24 32 28 31 37 39 42 52 51 51 51 51 52 55 57 58 59 61 63 66 67 68 68 68 67 67 68 68
25 28 29 22 21 29 29 35 37 34 39 52 52 50 49 49 51 53 55 55 58 60 61 61 64 67 67 67 67 67 67 67
27 28 28 24 22 23 23 22 33 35 46 49 48 47 46 46 49 51 52 54 56 57 59 60 61 62 65 67 68 68 68 67
28 27 27 24 24 30 23 26 34 40 44 48 47 46 46 46 47 47 48 50 53 54 56 57 59 60 62 63 65 66 67 66
28 33 28 26 27 27 41 45 45 44 42 46 45 44 44 45 46 45 46 47 49 52 53 55 56 59 60 60 61 61 62 63
28 30 34 32 28 28 39 45 45 42 43 45 43 43 43 43 45 45 46 46 48 49 51 53 54 54 55 58 58 59 59 60
26 27 27 32 31 35 43 44 45 45 44 44 43 43 42 43 44 45 45 47 47 48 50 52 54 55 56 56 56 57 56 57
24 26 27 28 28 26 34 41 45 44 44 44 43 42 42 44 44 44 44 47 46 46 48 50 51 51 50 50 50 50 51 52
30 26 19 26 30 31 32 34 45 44 43 42 41 39 41 43 43 45 45 45 45 46 47 48 48 47 47 48 48 48 49 49
30 27 31 35 36 37 29 30 44 44 43 42 40 40 41 43 43 44 44 45 46 46 46 47 46 47 46 46 46 47 47 46
28 25 24 37 36 28 32 39 41 43 43 42 40 41 42 41 42 43 44 45 45 45 45 45 46 46 45 45 45 44 44 44
33 32 36 40 40 40 38 39 40 41 41 41 41 41 41 40 42 43 44 44 45 46 45 45 45 45 43 43 43 42 42 42
34 38 37 39 39 38 38 39 42 43 43 44 43 41 40 39 41 41 42 43 44 43 43 44 44 44 43 43 42 41 41 41
32 34 36 39 39 38 39 40 39 41 41 42 41 39 39 41 41 41 41 42 43 42 43 43 43 42 42 42 41 40 40 40
35 34 35 34 39 41 39 38 39 37 37 39 40 39 40 41 41 41 41 42 42 42 43 42 43 42 42 42 40 39 39 39
37 40 41 41 43 43 39 37 39 36 38 39 39 39 40 41 41 42 42 41 41 42 42 42 41 40 42 41 41 39 38 38
Lifted_Index
3 3 4 4 3 2 1 0 -0 -0 -1 -1 -2 -3 -3 -2 -3 -3 -3 -3 -2 -2 -2 -1 -1 -2 -2 -2 -2 -1 -1 -1
3 3 3 3 3 2 1 0 -0 -1 -1 -1 -2 -2 -2 -2 -3 -3 -3 -3 -3 -2 -2 -2 -2 -2 -2 -2 -2 -2 -2 -2
1 2 2 3 2 2 1 -0 -1 -1 -1 -1 -2 -2 -2 -2 -2 -2 -2 -2 -3 -3 -3 -2 -2 -2 -2 -2 -2 -2 -2 -2
0 1 1 2 2 2 1 0 -0 -1 -1 -1 -1 -2 -2 -2 -2 -2 -2 -2 -2 -2 -3 -2 -2 -2 -2 -2 -2 -1 -2 -2
-0 -0 1 1 2 2 1 1 0 0 -0 -1 -1 -1 -2 -1 -1 -1 -1 -2 -2 -2 -3 -3 -2 -2 -2 -2 -1 -1 -1 -1
-0 0 1 1 2 2 2 1 1 0 0 -1 -1 -1 -1 -1 -1 -1 -1 -2 -2 -2 -3 -3 -3 -2 -2 -2 -1 -1 -0 -0
0 1 1 2 2 2 1 1 1 1 0 -0 -1 -1 -1 -1 -1 -1 -1 -1 -2 -2 -2 -2 -2 -2 -2 -2 -1 -0 -0 0
1 1 1 2 2 1 1 1 1 1 0 -0 -0 -0 -1 -1 -1 -1 -1 -1 -1 -1 -1 -2 -2 -2 -2 -1 -1 -0 -0 0
1 1 1 1 2 1 0 0 0 1 0 0 -0 -0 -0 -0 -0 -0 -0 0 0 -0 -1 -1 -1 -1 -1 -1 -1 -0 -0 -0
2 1 1 1 2 2 1 0 0 0 0 0 -0 -0 -0 0 0 0 0 1 1 1 1 1 1 1 0 0 0 -0 -0 -1
2 1 1 2 2 2 1 0 0 -0 -0 -0 -0 -0 0 0 0 0 1 1 2 3 4 4 4 4 3 3 3 2 1 1
2 2 2 2 2 2 1 1 -0 -1 -1 -0 -0 -0 0 1 1 1 1 2 4 5 6 6 6 6 6 6 6 5 5 4
3 3 2 2 2 2 2 1 -0 -1 -1 -1 -0 -0 0 1 2 2 2 4 5 6 7 7 7 8 8 8 8 8 9 9
3 3 2 2 2 2 2 2 0 -1 -1 -1 -1 -1 -0 1 2 2 3 4 5 6 7 8 9 9 10 10 11 11 11 11
3 2 2 2 2 2 2 2 1 0 -1 -1 -1 -1 -0 1 1 2 3 4 5 6 6 7 9 10 11 12 12 13 13 13
2 2 2 2 2 2 2 2 2 1 0 -0 -0 0 1 1 2 2 3 4 5 5 6 8 9 11 11 12 13 14 14 14
3 3 3 3 2 2 2 2 2 2 1 1 1 1 2 2 2 3 3 4 5 6 8 9 10 11 12 13 14 14 14 14
3 3 3 3 3 3 3 3 2 2 2 2 2 2 2 2 3 3 4 5 6 7 8 10 11 12 13 14 14 15 15 15
3 4 3 3 3 3 3 2 2 2 3 2 2 2 2 3 3 4 5 5 6 7 8 10 11 12 13 14 14 15 15 15